Le nostre stazioni meteo in Italia

Pubblicità
Il mio iltempo24.it
Foggia Amendola, Italia (16261): Temperatura & dewpoint: 15.09.2018 05:00:00 - 21.09.2018 05:00:00 (CEST)Foggia Amendola, Italia (16261): velocità del vento: 15.09.2018 05:00:00 - 21.09.2018 05:00:00 (CEST)Foggia Amendola, Italia (16261): direzione del vento: 15.09.2018 05:00:00 - 21.09.2018 05:00:00 (CEST)Foggia Amendola, Italia (16261): reduced air pressure: 15.09.2018 05:00:00 - 21.09.2018 05:00:00 (CEST)Foggia Amendola, Italia (16261): visibility: 15.09.2018 05:00:00 - 21.09.2018 05:00:00 (CEST)Foggia Amendola, Italia (16261): ore di luce: 15.09.2018 05:00:00 - 21.09.2018 05:00:00 (CEST)
Data & Tempo tt [°C] td [°C] ff [km/h] ff [kn] dd ppp [hPa] vv [km] sd [min]
21.09.2018 05:00:00 - - - - - - - -
21.09.2018 04:00:00 - - - - - - - -
21.09.2018 03:00:00 - - - - - - - -
21.09.2018 02:00:00 - - - - - - - -
21.09.2018 01:00:00 - - - - - - - -
21.09.2018 00:00:00 - - - - - - - -
20.09.2018 23:00:00 - - - - - - - -
20.09.2018 22:00:00 - - - - - - - -
20.09.2018 21:00:00 - - - - - - - -
20.09.2018 20:00:00 21,2 20,5 11 6 O 1017,3 12 0
20.09.2018 19:00:00 - - - - - - - -
20.09.2018 18:00:00 - - - - - - - -
20.09.2018 17:00:00 25,8 21,9 11 6 E 1016,5 8 24
20.09.2018 16:00:00 26,0 23,0 5 3 NNE - 8 -
20.09.2018 15:00:00 26,0 21,0 18 10 ENE - 3,0 -
20.09.2018 14:00:00 27,4 20,7 9 5 ONO 1017,7 12 36
20.09.2018 13:00:00 27,0 22,0 - - - - 10 -
20.09.2018 12:00:00 - - - - - - - -
20.09.2018 11:00:00 24,8 22,3 0 0 N 1018,5 7 0
20.09.2018 10:00:00 - - - - - - - -
20.09.2018 09:00:00 - - - - - - - -
20.09.2018 08:00:00 19,8 17,6 4 2 - 1018,2 0,9 0
20.09.2018 07:00:00 - - - - - - - -
20.09.2018 06:00:00 - - - - - - - -
20.09.2018 05:00:00 - - - - - - - -
20.09.2018 04:00:00 - - - - - - - -
20.09.2018 03:00:00 - - - - - - - -
20.09.2018 02:00:00 - - - - - - - -
20.09.2018 01:00:00 - - - - - - - -
20.09.2018 00:00:00 - - - - - - - -
19.09.2018 23:00:00 - - - - - - - -
19.09.2018 22:00:00 - - - - - - - -
19.09.2018 21:00:00 - - - - - - - -
19.09.2018 20:00:00 20,0 18,7 9 5 SO 1018,9 10 0
19.09.2018 19:00:00 23,0 22,0 11 6 SSO - 6 -
19.09.2018 18:00:00 23,0 23,0 4 2 E - 10 -
19.09.2018 17:00:00 25,2 22,3 18 10 ENE 1017,4 10 0
19.09.2018 16:00:00 27,0 21,0 16 9 E - 10 -
19.09.2018 15:00:00 28,0 19,0 16 9 E - 10 -
19.09.2018 14:00:00 28,8 19,2 13 7 E 1017,7 10 12
19.09.2018 13:00:00 29,0 19,0 5 3 - - 10 -
19.09.2018 12:00:00 28,0 20,0 4 2 NNE - 10 -
19.09.2018 11:00:00 25,8 21,7 4 2 N 1018,9 8 12
19.09.2018 10:00:00 24,0 20,0 9 5 O - 8 -
19.09.2018 09:00:00 22,0 21,0 4 2 - - 8 -
19.09.2018 08:00:00 15,0 14,4 5 3 N 1018,5 8 0
19.09.2018 07:00:00 15,0 14,0 8 4 NO - 8 -
19.09.2018 06:00:00 15,0 14,0 5 3 NO - 10 -
19.09.2018 05:00:00 - - - - - - - -
19.09.2018 04:00:00 - - - - - - - -
19.09.2018 03:00:00 - - - - - - - -
19.09.2018 02:00:00 - - - - - - - -
19.09.2018 01:00:00 - - - - - - - -
19.09.2018 00:00:00 - - - - - - - -
18.09.2018 23:00:00 - - - - - - - -
18.09.2018 22:00:00 23,0 22,0 5 3 ENE - 10 -
18.09.2018 21:00:00 24,0 23,0 5 3 E - 10 -
18.09.2018 20:00:00 24,0 21,3 8 4 ENE 1018,2 10 0
18.09.2018 19:00:00 - - - - - - - -
18.09.2018 18:00:00 - - - - - - - -
18.09.2018 17:00:00 26,0 20,3 22 12 E 1018,1 10 24
18.09.2018 16:00:00 - - - - - - - -
18.09.2018 15:00:00 - - - - - - - -
18.09.2018 14:00:00 30,0 13,7 11 6 E 1019,3 10 60
18.09.2018 13:00:00 - - - - - - - -
18.09.2018 12:00:00 - - - - - - - -
18.09.2018 11:00:00 26,0 21,4 8 4 SE 1020,0 8 12
18.09.2018 10:00:00 - - - - - - - -
18.09.2018 09:00:00 - - - - - - - -
18.09.2018 08:00:00 19,6 17,6 4 2 NNO 1019,5 6 0
18.09.2018 07:00:00 - - - - - - - -
18.09.2018 06:00:00 - - - - - - - -
18.09.2018 05:00:00 18,2 16,9 9 5 O 1018,9 12 0
18.09.2018 04:00:00 - - - - - - - -
18.09.2018 03:00:00 - - - - - - - -
18.09.2018 02:00:00 19,6 19,0 9 5 O 1019,0 12 0
18.09.2018 01:00:00 - - - - - - - -
18.09.2018 00:00:00 - - - - - - - -
17.09.2018 23:00:00 22,6 22,1 5 3 N 1019,6 12 0
17.09.2018 22:00:00 - - - - - - - -
17.09.2018 21:00:00 - - - - - - - -
17.09.2018 20:00:00 24,6 23,6 11 6 SE 1019,5 8 0
17.09.2018 19:00:00 - - - - - - - -
17.09.2018 18:00:00 - - - - - - - -
17.09.2018 17:00:00 28,4 20,4 26 14 E 1018,6 12 60
17.09.2018 16:00:00 - - - - - - - -
17.09.2018 15:00:00 - - - - - - - -
17.09.2018 14:00:00 31,6 15,1 13 7 E 1020,0 15 60
17.09.2018 13:00:00 - - - - - - - -
17.09.2018 12:00:00 - - - - - - - -
17.09.2018 11:00:00 27,6 18,0 4 2 SSO 1021,2 12 60
17.09.2018 10:00:00 - - - - - - - -
17.09.2018 09:00:00 - - - - - - - -
17.09.2018 08:00:00 17,8 16,3 5 3 O 1021,1 12 0
17.09.2018 07:00:00 - - - - - - - -
17.09.2018 06:00:00 - - - - - - - -
17.09.2018 05:00:00 - - - - - - - -
17.09.2018 04:00:00 - - - - - - - -
17.09.2018 03:00:00 - - - - - - - -
17.09.2018 02:00:00 - - - - - - - -
17.09.2018 01:00:00 - - - - - - - -
17.09.2018 00:00:00 - - - - - - - -
16.09.2018 23:00:00 - - - - - - - -
16.09.2018 22:00:00 - - - - - - - -
16.09.2018 21:00:00 - - - - - - - -
16.09.2018 20:00:00 - - - - - - - -
16.09.2018 19:00:00 - - - - - - - -
16.09.2018 18:00:00 - - - - - - - -
16.09.2018 17:00:00 - - - - - - - -
16.09.2018 16:00:00 - - - - - - - -
16.09.2018 15:00:00 - - - - - - - -
16.09.2018 14:00:00 - - - - - - - -
16.09.2018 13:00:00 - - - - - - - -
16.09.2018 12:00:00 - - - - - - - -
16.09.2018 11:00:00 - - - - - - - -
16.09.2018 10:00:00 - - - - - - - -
16.09.2018 09:00:00 - - - - - - - -
16.09.2018 08:00:00 - - - - - - - -
16.09.2018 07:00:00 - - - - - - - -
16.09.2018 06:00:00 - - - - - - - -
16.09.2018 05:00:00 - - - - - - - -
16.09.2018 04:00:00 - - - - - - - -
16.09.2018 03:00:00 - - - - - - - -
16.09.2018 02:00:00 - - - - - - - -
16.09.2018 01:00:00 - - - - - - - -
16.09.2018 00:00:00 - - - - - - - -
15.09.2018 23:00:00 - - - - - - - -
15.09.2018 22:00:00 - - - - - - - -
15.09.2018 21:00:00 - - - - - - - -
15.09.2018 20:00:00 - - - - - - - -
15.09.2018 19:00:00 - - - - - - - -
15.09.2018 18:00:00 - - - - - - - -
15.09.2018 17:00:00 - - - - - - - -
15.09.2018 16:00:00 - - - - - - - -
15.09.2018 15:00:00 - - - - - - - -
15.09.2018 14:00:00 - - - - - - - -
15.09.2018 13:00:00 - - - - - - - -
15.09.2018 12:00:00 - - - - - - - -
15.09.2018 11:00:00 - - - - - - - -
15.09.2018 10:00:00 - - - - - - - -
15.09.2018 09:00:00 - - - - - - - -
15.09.2018 08:00:00 - - - - - - - -
15.09.2018 07:00:00 - - - - - - - -
15.09.2018 06:00:00 - - - - - - - -
15.09.2018 05:00:00 - - - - - - - -

tt = Temperatura
td = dewpoint
ff = velocità del vento
dd = direzione del vento
ppp = reduced air pressure
vv = visibility
sd = ore di luce

Stazioni seguenti

WeatherPro
AMSI
MeteoEarth